{"data":{"norad_id":48669,"epoch":"2026-09-19T18:01:07.484448Z","epoch_age_seconds":101976,"freshness":"FRESH","line1":"1 48669U 21044AH  26262.75078107 -.00000249  00000+0  37676-5 0  9996","line2":"2 48669  53.1572 280.9553 0001661  72.0229 288.0954 15.31699566293692","mean_motion":15.31699566,"eccentricity":0.0001661,"inclination_deg":53.1572,"raan_deg":280.9553,"arg_perigee_deg":72.0229,"mean_anomaly_deg":288.0954,"bstar":3.7676e-6,"rev_number":29369,"period_min":94.013214599292,"perigee_km":469.60369027357,"apogee_km":471.87888764116,"semimajor_km":6848.8782889574,"source":"CELESTRAK","updated_at":"2026-09-20T09:00:39.240991Z"}}